GW2167 Weather Reports


time (UTC)temp
C
wind
direction
speed
KPH
gust
KPH
rain 1hr
cm
rain 24hr
cm
rain mn
cm
humidity
%
barometer
mb
20260505041703 10 95 1.6 4.8 0.00 0.00 0.00 98 1005.7
20260505041616 10 97 1.6 4.8 0.00 0.00 0.00 98 1005.7
20260505041603 10 98 1.6 4.8 0.00 0.00 0.00 98 1005.7
20260505041503 10 99 3.2 4.8 0.00 0.00 0.00 98 1005.6
20260505041316 10 99 1.6 4.8 0.00 0.00 0.00 98 1005.6
20260505041303 10 99 1.6 4.8 0.00 0.00 0.00 98 1005.5
20260505041203 10 99 1.6 4.8 0.00 0.00 0.00 98 1005.5
20260505041003 10 102 1.6 4.8 0.00 0.00 0.00 98 1005.5
20260505040903 10 96 1.6 3.2 0.00 0.00 0.00 98 1005.5
20260505040803 10 86 0.0 3.2 0.00 0.00 0.00 98 1005.6
20260505040703 9 83 0.0 3.2 0.00 0.00 0.00 98 1005.6
20260505040603 9 84 0.0 3.2 0.00 0.00 0.00 98 1005.5
20260505040503 9 87 1.6 4.8 0.00 0.00 0.00 98 1005.5
20260505040403 9 88 1.6 4.8 0.00 0.00 0.00 98 1005.7
20260505040303 9 91 1.6 4.8 0.00 0.00 0.00 98 1005.6
20260505040203 9 92 1.6 4.8 0.00 0.00 0.00 98 1005.7
20260505040103 9 92 3.2 4.8 0.00 0.00 0.00 98 1005.5
20260505040004 9 92 3.2 4.8 0.00 0.00 0.00 98 1005.5
20260505035903 9 93 3.2 4.8 0.00 0.00 0.00 98 1005.5
20260505035803 9 94 3.2 4.8 0.00 0.00 0.00 98 1005.6
20260505035703 9 91 3.2 4.8 0.00 0.00 0.00 98 1005.6
20260505035603 9 89 3.2 4.8 0.00 0.00 0.00 98 1005.6
20260505035503 9 87 3.2 4.8 0.00 0.00 0.00 98 1005.5
20260505035403 9 82 3.2 4.8 0.00 0.00 0.00 98 1005.6
20260505035315 9 70 1.6 4.8 0.00 0.00 0.00 98 1005.6
20260505035304 9 67 1.6 4.8 0.00 0.00 0.00 98 1005.5
20260505035203 9 55 1.6 4.8 0.00 0.00 0.00 98 1005.5
20260505035020 9 47 1.6 4.8 0.00 0.00 0.00 98 1005.7
20260505035003 9 51 1.6 4.8 0.00 0.00 0.00 98 1005.5
20260505034903 9 54 1.6 4.8 0.00 0.00 0.00 98 1005.5
20260505034703 9 83 3.2 4.8 0.00 0.00 0.00 98 1005.6
20260505034603 9 89 3.2 4.8 0.00 0.00 0.00 98 1005.5
20260505034503 9 89 3.2 4.8 0.00 0.00 0.00 98 1005.5
20260505034403 8 89 3.2 4.8 0.00 0.00 0.00 98 1005.6
20260505034303 8 90 3.2 4.8 0.00 0.00 0.00 98 1005.7
20260505034216 8 90 3.2 4.8 0.00 0.00 0.00 98 1005.7
20260505034203 8 91 3.2 4.8 0.00 0.00 0.00 98 1005.6
20260505034103 8 92 3.2 4.8 0.00 0.00 0.00 98 1005.6
20260505033903 8 88 1.6 4.8 0.00 0.00 0.00 98 1005.5
20260505033803 8 85 1.6 6.4 0.00 0.00 0.00 98 1005.6
20260505033703 8 83 1.6 8.0 0.00 0.00 0.00 98 1005.6
20260505033603 8 81 1.6 8.0 0.00 0.00 0.00 98 1005.6
20260505033503 8 80 3.2 8.0 0.00 0.00 0.00 98 1005.6
20260505033403 8 81 3.2 8.0 0.00 0.00 0.00 98 1005.7
20260505033303 8 84 3.2 8.0 0.00 0.00 0.00 98 1005.5
20260505033218 8 84 3.2 8.0 0.00 0.00 0.00 98 1005.5
20260505033203 8 84 3.2 8.0 0.00 0.00 0.00 98 1005.5
20260505033103 8 82 4.8 8.0 0.00 0.00 0.00 98 1005.5
20260505032903 8 77 3.2 8.0 0.00 0.00 0.00 98 1005.6
20260505032816 8 73 3.2 8.0 0.00 0.00 0.00 98 1005.6
20260505032803 8 71 3.2 8.0 0.00 0.00 0.00 98 1005.5
20260505032703 8 64 3.2 8.0 0.00 0.00 0.00 98 1005.5
20260505032503 8 45 3.2 6.4 0.00 0.00 0.00 98 1005.5
20260505032403 8 29 3.2 6.4 0.00 0.00 0.00 98 1005.5
20260505032304 8 15 1.6 4.8 0.00 0.00 0.00 98 1005.6
20260505032203 8 7 1.6 3.2 0.00 0.00 0.00 98 1005.7
20260505032103 8 1 1.6 3.2 0.00 0.00 0.00 98 1005.7
20260505032003 8 356 1.6 3.2 0.00 0.00 0.00 98 1005.7
20260505031916 8 352 1.6 3.2 0.00 0.00 0.00 98 1005.6
20260505031903 8 351 1.6 3.2 0.00 0.00 0.00 98 1005.8
20260505031803 8 350 1.6 3.2 0.00 0.00 0.00 98 1005.7
20260505031603 8 347 1.6 3.2 0.00 0.00 0.00 98 1005.7
20260505031503 8 346 1.6 3.2 0.00 0.00 0.00 98 1005.6
20260505031403 8 341 1.6 4.8 0.00 0.00 0.00 98 1005.9
20260505031303 8 337 1.6 4.8 0.00 0.00 0.00 98 1005.9
20260505031203 8 332 1.6 4.8 0.00 0.00 0.00 98 1005.6
20260505031103 8 329 1.6 4.8 0.00 0.00 0.00 98 1005.7
20260505031003 8 328 1.6 4.8 0.00 0.00 0.00 98 1005.5
20260505030903 8 327 1.6 4.8 0.00 0.00 0.00 98 1005.9
20260505030803 8 326 1.6 4.8 0.00 0.00 0.00 98 1005.9
20260505030703 8 323 3.2 4.8 0.00 0.00 0.00 98 1005.8
20260505030603 8 322 3.2 4.8 0.00 0.00 0.00 98 1005.6
20260505030516 8 320 3.2 4.8 0.00 0.00 0.00 97 1005.6
20260505030503 8 320 3.2 4.8 0.00 0.00 0.00 97 1005.7
20260505030403 8 321 3.2 4.8 0.00 0.00 0.00 97 1005.6
20260505030203 8 326 3.2 4.8 0.00 0.00 0.00 97 1005.7
20260505030103 8 332 3.2 4.8 0.00 0.00 0.00 97 1005.7
20260505030003 8 338 3.2 4.8 0.00 0.00 0.00 97 1005.5
20260505025916 8 341 3.2 4.8 0.00 0.00 0.00 97 1005.5
20260505025903 8 343 3.2 4.8 0.00 0.00 0.00 97 1005.7
20260505025803 8 348 3.2 4.8 0.00 0.00 0.00 97 1005.8
20260505025603 8 2 3.2 4.8 0.00 0.00 0.00 97 1005.7
20260505025503 8 10 3.2 4.8 0.00 0.00 0.00 97 1005.7
20260505025403 8 13 3.2 4.8 0.00 0.00 0.00 97 1005.6
20260505025304 8 14 3.2 4.8 0.00 0.00 0.00 97 1005.6
20260505025203 8 12 3.2 4.8 0.00 0.00 0.00 97 1005.8
20260505025116 8 10 3.2 4.8 0.00 0.00 0.00 97 1005.8
20260505025104 8 9 3.2 4.8 0.00 0.00 0.00 97 1005.6
20260505025004 8 8 3.2 4.8 0.00 0.00 0.00 97 1005.6
20260505024803 8 12 3.2 4.8 0.00 0.00 0.00 97 1005.5
20260505024703 8 17 3.2 4.8 0.00 0.00 0.00 97 1005.7
20260505024603 8 20 3.2 4.8 0.00 0.00 0.00 97 1005.8
20260505024503 8 19 3.2 3.2 0.00 0.00 0.00 97 1005.6
20260505024403 8 12 3.2 4.8 0.00 0.00 0.00 97 1005.6
20260505024303 8 5 3.2 6.4 0.00 0.00 0.00 97 1005.6
20260505024203 8 1 3.2 6.4 0.00 0.00 0.00 97 1005.7
20260505024103 8 353 3.2 6.4 0.00 0.00 0.00 97 1005.6
20260505024003 8 343 3.2 6.4 0.00 0.00 0.00 97 1005.5
20260505023903 8 335 3.2 6.4 0.00 0.00 0.00 97 1005.6
20260505023803 8 328 3.2 6.4 0.00 0.00 0.00 97 1005.6
20260505023703 8 322 3.2 6.4 0.00 0.00 0.00 97 1005.7
20260505023603 8 318 3.2 6.4 0.00 0.00 0.00 97 1005.6
20260505023518 8 313 4.8 6.4 0.00 0.00 0.00 97 1005.6
20260505023503 8 312 4.8 6.4 0.00 0.00 0.00 97 1005.6
20260505023403 8 310 4.8 6.4 0.00 0.00 0.00 97 1005.6
20260505023203 8 308 4.8 6.4 0.00 0.00 0.00 97 1005.7
20260505023103 8 307 4.8 6.4 0.00 0.00 0.00 97 1005.5
20260505023003 8 308 4.8 6.4 0.00 0.00 0.00 96 1005.6
20260505022903 8 308 4.8 6.4 0.00 0.00 0.00 97 1005.5
20260505022803 8 307 4.8 6.4 0.00 0.00 0.00 97 1005.7
20260505022703 8 306 4.8 6.4 0.00 0.00 0.00 97 1005.5
20260505022617 8 306 4.8 6.4 0.00 0.00 0.00 97 1005.5
20260505022603 8 306 4.8 6.4 0.00 0.00 0.00 97 1005.6
20260505022503 8 306 3.2 6.4 0.00 0.00 0.00 97 1005.5
20260505022317 8 304 3.2 6.4 0.00 0.00 0.00 97 1005.5
20260505022304 8 303 3.2 6.4 0.00 0.00 0.00 97 1005.6
20260505022203 8 302 3.2 6.4 0.00 0.00 0.00 96 1005.6
20260505022118 8 301 3.2 4.8 0.00 0.00 0.00 96 1005.6
20260505022017 8 301 3.2 4.8 0.00 0.00 0.00 96 1005.5
20260505022003 8 301 3.2 4.8 0.00 0.00 0.00 96 1005.6
20260505021703 8 313 3.2 4.8 0.00 0.00 0.00 96 1005.5
20260505021603 8 320 3.2 4.8 0.00 0.00 0.00 97 1005.5
20260505021518 8 332 3.2 4.8 0.00 0.00 0.00 97 1005.5
20260505021503 8 336 3.2 4.8 0.00 0.00 0.00 97 1005.5
20260505021403 8 19 3.2 4.8 0.00 0.00 0.00 97 1005.3
20260505021319 8 43 3.2 4.8 0.00 0.00 0.00 97 1005.3
20260505021203 8 71 3.2 4.8 0.00 0.00 0.00 97 1005.5
20260505021003 8 92 3.2 4.8 0.00 0.00 0.00 97 1005.7
20260505020917 8 96 3.2 4.8 0.00 0.00 0.00 96 1005.7
20260505020903 8 98 3.2 4.8 0.00 0.00 0.00 96 1005.6
20260505020803 8 102 3.2 4.8 0.00 0.00 0.00 96 1005.5
20260505020718 8 106 3.2 4.8 0.00 0.00 0.00 96 1005.5
20260505020603 8 108 3.2 4.8 0.00 0.00 0.00 96 1005.6
20260505020403 8 111 3.2 4.8 0.00 0.00 0.00 96 1005.5
20260505020303 8 113 3.2 4.8 0.00 0.00 0.00 96 1005.5
20260505020203 8 114 3.2 4.8 0.00 0.00 0.00 96 1005.5
20260505020103 8 115 3.2 4.8 0.00 0.00 0.00 96 1005.5
20260505020003 8 116 3.2 4.8 0.00 0.00 0.00 96 1005.5
20260505015903 8 118 3.2 4.8 0.00 0.00 0.00 96 1005.5
20260505015803 8 121 3.2 4.8 0.00 0.00 0.00 96 1005.5
20260505015703 8 123 3.2 4.8 0.00 0.00 0.00 96 1005.5
20260505015603 8 125 3.2 4.8 0.00 0.00 0.00 96 1005.5
20260505015503 8 128 3.2 4.8 0.00 0.00 0.00 96 1005.5
20260505015403 8 130 3.2 4.8 0.00 0.00 0.00 96 1005.5
20260505015303 8 131 3.2 4.8 0.00 0.00 0.00 96 1005.5
20260505015203 8 131 3.2 4.8 0.00 0.00 0.00 96 1005.4
20260505015116 8 130 1.6 4.8 0.00 0.00 0.00 96 1005.4
20260505015103 8 130 1.6 4.8 0.00 0.00 0.00 96 1005.5
20260505015003 9 130 1.6 4.8 0.00 0.00 0.00 96 1005.5
20260505014803 9 124 1.6 4.8 0.00 0.00 0.00 96 1005.5
20260505014703 9 120 1.6 4.8 0.00 0.00 0.00 96 1005.6
20260505014603 9 104 1.6 4.8 0.00 0.00 0.00 96 1005.5
20260505014503 9 51 1.6 3.2 0.00 0.00 0.00 96 1005.5
20260505014403 9 31 0.0 3.2 0.00 0.00 0.00 96 1005.5
20260505014303 9 4 0.0 3.2 0.00 0.00 0.00 96 1005.5
20260505014203 9 356 0.0 3.2 0.00 0.00 0.00 96 1005.5
20260505014118 9 351 0.0 3.2 0.00 0.00 0.00 96 1005.5
20260505014103 9 350 0.0 3.2 0.00 0.00 0.00 96 1005.5
20260505014017 9 348 1.6 3.2 0.00 0.00 0.00 95 1005.5
20260505014003 9 347 1.6 3.2 0.00 0.00 0.00 95 1005.6
20260505013703 9 350 1.6 3.2 0.00 0.00 0.00 95 1005.5
20260505013603 9 353 1.6 3.2 0.00 0.00 0.00 95 1005.5
20260505013503 9 353 1.6 4.8 0.00 0.00 0.00 95 1005.5
20260505013403 9 348 1.6 4.8 0.00 0.00 0.00 95 1005.6
20260505013303 9 348 1.6 4.8 0.00 0.00 0.00 95 1005.6
20260505013217 9 345 1.6 4.8 0.00 0.00 0.00 95 1005.6
20260505013203 9 345 1.6 4.8 0.00 0.00 0.00 95 1005.5
20260505013103 9 344 3.2 4.8 0.00 0.00 0.00 95 1005.3
20260505012903 9 347 1.6 4.8 0.00 0.00 0.00 95 1005.5
20260505012803 9 348 1.6 4.8 0.00 0.00 0.00 95 1005.5
20260505012703 9 350 1.6 4.8 0.00 0.00 0.00 95 1005.5
20260505012603 9 353 1.6 4.8 0.00 0.00 0.00 95 1005.5
20260505012503 9 355 1.6 4.8 0.00 0.00 0.00 95 1005.5
20260505012403 9 359 1.6 4.8 0.00 0.00 0.00 95 1005.5
20260505012304 9 3 1.6 4.8 0.00 0.00 0.00 95 1005.6
20260505012219 9 7 1.6 3.2 0.00 0.00 0.00 95 1005.6
20260505012203 9 8 1.6 3.2 0.00 0.00 0.00 95 1005.6
20260505012118 9 9 1.6 3.2 0.00 0.00 0.00 95 1005.6
20260505012103 9 10 1.6 3.2 0.00 0.00 0.00 95 1005.5
20260505011803 9 4 1.6 3.2 0.00 0.00 0.00 95 1005.5
20260505011703 9 3 1.6 3.2 0.00 0.00 0.00 95 1005.5
20260505011603 9 360 1.6 4.8 0.00 0.00 0.00 95 1005.5
20260505011503 9 357 1.6 4.8 0.00 0.00 0.00 95 1005.6
20260505011416 9 351 1.6 4.8 0.00 0.00 0.00 94 1005.6
20260505011403 9 349 1.6 4.8 0.00 0.00 0.00 94 1005.7
20260505011303 9 344 1.6 4.8 0.00 0.00 0.00 95 1005.5
20260505011103 9 338 3.2 6.4 0.00 0.00 0.00 95 1005.6
20260505011003 9 338 3.2 6.4 0.00 0.00 0.00 95 1005.6
20260505010903 9 334 3.2 6.4 0.00 0.00 0.00 95 1005.6
20260505010803 9 330 3.2 6.4 0.00 0.00 0.00 94 1005.7
20260505010617 9 322 3.2 6.4 0.00 0.00 0.00 94 1005.8
20260505010603 9 321 3.2 6.4 0.00 0.00 0.00 94 1005.6
20260505010503 9 320 3.2 6.4 0.00 0.00 0.00 94 1005.7
20260505010317 9 323 3.2 6.4 0.00 0.00 0.00 94 1005.6
20260505010303 9 323 3.2 6.4 0.00 0.00 0.00 94 1005.5
20260505010203 9 324 3.2 6.4 0.00 0.00 0.00 94 1005.5
20260505010003 9 319 3.2 6.4 0.00 0.00 0.00 94 1005.7
20260505005903 9 319 3.2 6.4 0.00 0.00 0.00 94 1005.5
20260505005818 9 320 3.2 6.4 0.00 0.00 0.00 93 1005.5
20260505005803 9 321 3.2 6.4 0.00 0.00 0.00 93 1005.6
20260505005703 9 323 3.2 6.4 0.00 0.00 0.00 93 1005.7
20260505005619 9 324 3.2 6.4 0.00 0.00 0.00 93 1005.7
20260505005503 9 324 4.8 6.4 0.00 0.00 0.00 93 1005.5
20260505005416 9 323 4.8 6.4 0.00 0.00 0.00 93 1005.5
20260505005304 9 322 4.8 6.4 0.00 0.00 0.00 93 1005.5
20260505005103 9 323 3.2 6.4 0.00 0.00 0.00 92 1005.5
20260505005004 9 326 3.2 6.4 0.00 0.00 0.00 92 1005.5
20260505004903 9 332 3.2 6.4 0.00 0.00 0.00 92 1005.5
20260505004803 10 339 3.2 6.4 0.00 0.00 0.00 92 1005.5
20260505004718 10 344 3.2 6.4 0.00 0.00 0.00 92 1005.5
20260505004703 10 346 3.2 6.4 0.00 0.00 0.00 93 1005.5
20260505004603 10 348 1.6 6.4 0.00 0.00 0.00 93 1005.6
20260505004403 10 9 1.6 3.2 0.00 0.00 0.00 93 1005.4
20260505004303 10 21 1.6 4.8 0.00 0.00 0.00 92 1005.4
20260505004203 10 27 1.6 6.4 0.00 0.00 0.00 92 1005.5
20260505004103 10 33 1.6 6.4 0.00 0.00 0.00 92 1005.4
20260505004003 10 37 1.6 6.4 0.00 0.00 0.00 92 1005.1
20260505003903 10 39 1.6 6.4 0.00 0.00 0.00 92 1005.3
20260505003803 10 41 1.6 6.4 0.00 0.00 0.00 92 1005.4
20260505003703 10 42 3.2 6.4 0.00 0.00 0.00 92 1005.5
20260505003603 10 45 3.2 6.4 0.00 0.00 0.00 92 1005.4
20260505003503 10 46 3.2 6.4 0.00 0.00 0.00 91 1005.5
20260505003403 10 46 3.2 6.4 0.00 0.00 0.00 91 1005.5
20260505003303 10 45 3.2 6.4 0.00 0.00 0.00 91 1005.4
20260505003103 10 51 3.2 6.4 0.00 0.00 0.00 91 1005.5
20260505003003 10 53 3.2 6.4 0.00 0.00 0.00 91 1005.6
20260505002903 10 57 3.2 6.4 0.00 0.00 0.00 91 1005.5
20260505002819 10 59 3.2 4.8 0.00 0.00 0.00 91 1005.5
20260505002803 10 60 3.2 4.8 0.00 0.00 0.00 91 1005.5
20260505002703 10 60 3.2 4.8 0.00 0.00 0.00 91 1005.5
20260505002403 10 61 3.2 4.8 0.00 0.00 0.00 90 1005.5
20260505002304 10 62 3.2 4.8 0.00 0.00 0.00 90 1005.5
20260505002203 10 61 3.2 4.8 0.00 0.00 0.00 90 1005.6
20260505002103 10 59 3.2 4.8 0.00 0.00 0.00 90 1005.6
20260505002003 10 55 3.2 4.8 0.00 0.00 0.00 89 1005.5
20260505001903 10 52 3.2 4.8 0.00 0.00 0.00 89 1005.5
20260505001803 10 47 3.2 4.8 0.00 0.00 0.00 89 1005.6
20260505001703 11 45 3.2 4.8 0.00 0.00 0.00 89 1005.5
20260505001603 11 42 3.2 4.8 0.00 0.00 0.00 89 1005.7
20260505001503 11 41 3.2 4.8 0.00 0.00 0.00 88 1005.5
20260505001403 11 37 1.6 4.8 0.00 0.00 0.00 88 1005.6
20260505001303 11 34 1.6 4.8 0.00 0.00 0.00 89 1005.5
20260505001203 11 32 1.6 3.2 0.00 0.00 0.00 89 1005.5
20260505001120 11 25 1.6 3.2 0.00 0.00 0.00 89 1005.5
20260505001103 11 23 1.6 3.2 0.00 0.00 0.00 89 1005.5
20260505001003 11 11 1.6 4.8 0.00 0.00 0.00 89 1005.7
20260505000803 11 343 1.6 6.4 0.00 0.00 0.00 88 1005.8
20260505000703 11 335 1.6 6.4 0.00 0.00 0.00 88 1005.7
20260505000603 11 328 1.6 6.4 0.00 0.00 0.00 87 1005.8
20260505000503 11 323 1.6 6.4 0.00 0.00 0.00 88 1005.6
20260505000420 11 320 1.6 6.4 0.00 0.00 0.00 88 1005.6
20260505000405 11 320 1.6 6.4 0.00 0.00 0.00 88 1005.7
20260505000303 11 319 1.6 6.4 0.00 0.00 0.00 87 1005.6
20260505000103 11 328 3.2 6.4 0.00 0.00 0.00 87 1005.4
20260505000004 11 337 3.2 6.4 0.00 0.00 0.00 87 1005.6
20260504235903 11 341 3.2 6.4 0.00 0.00 2.06 86 1005.7
20260504235803 11 349 3.2 6.4 0.00 0.00 2.06 86 1005.7
20260504235703 11 2 3.2 6.4 0.00 0.00 2.06 86 1005.5
20260504235603 11 13 3.2 6.4 0.00 0.00 2.06 86 1005.6
20260504235503 11 23 3.2 6.4 0.00 0.00 2.06 85 1005.5
20260504235403 11 33 3.2 6.4 0.00 0.00 2.06 84 1005.6
20260504235304 11 39 3.2 6.4 0.00 0.00 2.06 85 1005.5
20260504235203 11 46 3.2 6.4 0.00 0.00 2.06 84 1005.5
20260504235103 11 49 3.2 6.4 0.00 0.00 2.06 85 1005.5
20260504235003 11 53 3.2 6.4 0.00 0.00 2.06 84 1005.7
20260504234903 12 58 3.2 6.4 0.00 0.00 2.06 84 1005.7
20260504234803 12 61 3.2 6.4 0.00 0.00 2.06 84 1005.5
20260504234703 12 59 3.2 6.4 0.00 0.00 2.06 82 1005.8
20260504234603 12 60 3.2 6.4 0.00 0.00 2.06 83 1005.6
20260504234503 12 55 3.2 6.4 0.00 0.00 2.06 84 1005.6
20260504234403 12 51 3.2 4.8 0.00 0.00 2.06 84 1005.7
20260504234303 12 51 3.2 4.8 0.00 0.00 2.06 83 1005.5
20260504234203 12 51 3.2 4.8 0.00 0.00 2.06 83 1005.8
20260504234103 12 50 3.2 4.8 0.00 0.00 2.06 83 1005.7
20260504234003 12 48 3.2 4.8 0.00 0.00 2.06 83 1005.7
20260504233903 12 43 3.2 4.8 0.00 0.00 2.06 81 1005.7
20260504233803 12 37 1.6 4.8 0.00 0.00 2.06 81 1005.6
20260504233703 12 35 3.2 6.4 0.00 0.00 2.06 81 1005.7
20260504233603 12 32 3.2 6.4 0.00 0.00 2.06 81 1005.8
20260504233503 12 35 3.2 6.4 0.00 0.00 2.06 82 1005.8
20260504233403 12 35 3.2 6.4 0.00 0.00 2.06 82 1005.8
20260504233303 12 32 3.2 6.4 0.00 0.00 2.06 81 1005.6
20260504233103 13 22 3.2 6.4 0.00 0.00 2.06 80 1005.7
20260504233003 13 19 3.2 6.4 0.00 0.00 2.06 79 1005.8
20260504232903 13 18 3.2 6.4 0.00 0.00 2.06 80 1005.9
20260504232803 13 20 3.2 6.4 0.00 0.00 2.06 79 1005.9
20260504232718 13 23 3.2 6.4 0.00 0.00 2.06 79 1005.9
20260504232703 13 23 3.2 6.4 0.00 0.00 2.06 79 1005.8
20260504232616 13 24 3.2 8.0 0.00 0.00 2.06 79 1005.8
20260504232603 13 25 3.2 8.0 0.00 0.00 2.06 79 1006.0
20260504232304 13 21 3.2 8.0 0.00 0.00 2.06 78 1005.7
20260504232203 13 24 3.2 8.0 0.00 0.00 2.06 78 1005.9
20260504232103 13 24 3.2 8.0 0.00 0.00 2.06 79 1005.9
20260504232003 13 27 3.2 8.0 0.00 0.00 2.06 79 1005.9
20260504231803 13 24 3.2 8.0 0.00 0.00 2.06 78 1005.9
20260504231703 13 18 3.2 8.0 0.00 0.00 2.06 78 1005.9
20260504231603 13 13 3.2 8.0 0.00 0.00 2.06 78 1005.8
20260504231503 13 11 3.2 8.0 0.00 0.00 2.06 78 1006.0
20260504231403 13 9 3.2 8.0 0.00 0.00 2.06 78 1005.8
20260504231303 13 7 3.2 8.0 0.00 0.00 2.06 78 1005.9
20260504231203 13 1 4.8 8.0 0.00 0.00 2.06 77 1005.8
20260504231103 13 359 4.8 8.0 0.00 0.00 2.06 78 1005.9
20260504231003 13 356 4.8 8.0 0.00 0.00 2.06 78 1006.1
20260504230903 13 352 4.8 8.0 0.00 0.00 2.06 78 1006.0
20260504230803 13 351 4.8 8.0 0.00 0.00 2.06 77 1006.0
20260504230703 13 351 4.8 8.0 0.00 0.00 2.06 77 1005.8
20260504230603 13 354 4.8 8.0 0.00 0.00 2.06 77 1005.9
20260504230503 13 355 4.8 8.0 0.00 0.00 2.06 77 1006.2
20260504230403 14 354 4.8 9.7 0.00 0.00 2.06 77 1006.1
20260504230303 14 353 4.8 9.7 0.00 0.00 2.06 77 1006.2
20260504230203 14 353 4.8 9.7 0.00 0.00 2.06 77 1006.0
20260504230003 14 354 4.8 9.7 0.00 0.00 2.06 76 1006.0
20260504225903 14 359 4.8 9.7 0.00 0.00 2.06 76 1005.9
20260504225804 14 1 4.8 9.7 0.00 0.00 2.06 76 1006.1
20260504225703 14 1 4.8 11.3 0.00 0.00 2.06 77 1006.0
20260504225603 14 1 4.8 16.1 0.00 0.00 2.06 76 1006.0
20260504225503 14 360 6.4 16.1 0.00 0.00 2.06 76 1005.9
20260504225304 14 1 6.4 16.1 0.00 0.00 2.06 76 1006.1
20260504225216 14 3 6.4 16.1 0.00 0.00 2.06 76 1006.1
20260504225203 14 4 4.8 16.1 0.00 0.00 2.06 77 1006.0
20260504225103 14 5 4.8 16.1 0.00 0.00 2.06 77 1005.9
20260504224903 14 4 4.8 16.1 0.00 0.00 2.06 77 1006.0
20260504224803 14 3 4.8 16.1 0.00 0.00 2.06 77 1005.9
20260504224717 14 2 4.8 16.1 0.00 0.00 2.06 77 1005.9
20260504224703 14 3 4.8 16.1 0.00 0.00 2.06 77 1006.1
20260504224603 14 3 4.8 16.1 0.00 0.00 2.06 77 1006.0
20260504224403 14 360 3.2 9.7 0.00 0.00 2.06 77 1006.2
20260504224303 14 358 4.8 9.7 0.00 0.00 2.06 77 1006.1
20260504224203 14 356 4.8 9.7 0.00 0.00 2.06 77 1006.2
20260504224103 14 354 4.8 9.7 0.00 0.00 2.06 77 1006.0
20260504224003 14 355 4.8 9.7 0.00 0.00 2.06 77 1006.1
20260504223903 14 351 4.8 9.7 0.00 0.00 2.06 77 1005.9
20260504223803 14 350 4.8 9.7 0.00 0.00 2.06 76 1006.2
20260504223719 14 352 4.8 9.7 0.00 0.00 2.06 76 1006.2
20260504223703 15 352 4.8 9.7 0.00 0.00 2.06 76 1006.1
20260504223603 15 350 4.8 9.7 0.00 0.00 2.06 76 1005.8
20260504223403 15 344 4.8 9.7 0.00 0.00 2.06 76 1006.1
20260504223303 15 344 4.8 9.7 0.00 0.00 2.06 76 1006.1
20260504223203 15 344 4.8 9.7 0.00 0.00 2.06 76 1006.1
20260504223103 15 340 4.8 9.7 0.00 0.00 2.06 76 1005.9
20260504223003 15 340 4.8 9.7 0.00 0.00 2.06 75 1005.9
20260504222903 15 343 4.8 9.7 0.00 0.00 2.06 75 1006.4
20260504222803 15 342 4.8 12.9 0.00 0.00 2.06 75 1005.9
20260504222717 15 339 4.8 17.7 0.00 0.00 2.06 75 1005.9
20260504222703 15 339 4.8 17.7 0.00 0.00 2.06 75 1006.0
20260504222603 15 343 4.8 17.7 0.00 0.00 2.06 75 1006.1
20260504222403 15 348 6.4 17.7 0.00 0.00 2.06 75 1005.9
20260504222304 15 349 6.4 17.7 0.00 0.00 2.06 74 1006.0
20260504222203 15 349 6.4 17.7 0.00 0.00 2.06 75 1005.9
20260504222103 15 351 6.4 17.7 0.00 0.00 2.06 74 1005.8
20260504222003 15 349 8.0 17.7 0.00 0.00 2.06 74 1005.8
20260504221903 15 349 8.0 17.7 0.00 0.00 2.06 74 1005.9
20260504221803 15 347 8.0 17.7 0.00 0.00 2.06 74 1005.9
20260504221719 15 347 8.0 17.7 0.00 0.00 2.06 74 1005.9
20260504221703 15 347 8.0 17.7 0.00 0.00 2.06 74 1005.6
20260504221603 15 345 8.0 17.7 0.00 0.00 2.06 74 1005.8
20260504221403 15 342 8.0 16.1 0.00 0.00 2.06 74 1005.9
20260504221303 15 340 8.0 16.1 0.00 0.00 2.06 73 1005.9
20260504221216 15 341 8.0 16.1 0.00 0.00 2.06 73 1005.9
20260504221203 15 340 8.0 16.1 0.00 0.00 2.06 73 1005.9
20260504221103 15 340 8.0 16.1 0.00 0.00 2.06 73 1005.9
20260504220914 15 338 8.0 17.7 0.00 0.00 2.06 72 1006.0
20260504220803 15 340 8.0 17.7 0.00 0.00 2.06 72 1005.9
20260504220703 15 341 9.7 17.7 0.00 0.00 2.06 72 1005.9
20260504220603 15 343 9.7 17.7 0.00 0.00 2.06 72 1005.7
20260504220503 15 344 9.7 17.7 0.00 0.00 2.06 72 1005.9
20260504220403 15 344 9.7 17.7 0.00 0.00 2.06 72 1005.9
20260504220303 15 345 8.0 17.7 0.00 0.00 2.06 72 1005.8
20260504220203 15 346 8.0 17.7 0.00 0.00 2.06 72 1005.9
20260504220003 15 349 8.0 17.7 0.00 0.00 2.06 70 1005.9
20260504215903 15 349 8.0 17.7 0.00 0.00 2.06 69 1005.8
20260504215803 15 350 8.0 17.7 0.00 0.00 2.06 69 1005.9
20260504215703 15 351 8.0 17.7 0.00 0.00 2.06 68 1006.0
20260504215603 15 351 6.4 16.1 0.00 0.00 2.06 67 1005.8
20260504215503 15 350 6.4 16.1 0.00 0.00 2.06 67 1005.9
20260504215419 15 349 6.4 16.1 0.00 0.00 2.06 67 1005.9
20260504215403 15 348 6.4 16.1 0.00 0.00 2.06 67 1005.9
20260504215304 15 347 8.0 16.1 0.00 0.00 2.06 67 1006.0
20260504215103 15 346 8.0 16.1 0.00 0.00 2.06 66 1005.8
20260504215003 15 345 8.0 17.7 0.00 0.00 2.06 66 1005.7
20260504214903 15 345 8.0 17.7 0.00 0.00 2.06 66 1005.9
20260504214803 15 346 8.0 19.3 0.00 0.00 2.06 66 1005.8
20260504214703 15 344 9.7 19.3 0.00 0.00 2.06 66 1005.6
20260504214603 15 343 9.7 19.3 0.00 0.00 2.06 66 1005.8
20260504214503 15 342 9.7 25.7 0.00 0.00 2.06 66 1005.8
20260504214403 15 342 9.7 25.7 0.00 0.00 2.06 65 1005.8
20260504214303 15 341 9.7 25.7 0.00 0.00 2.06 66 1005.8
20260504214203 15 339 9.7 25.7 0.00 0.00 2.06 65 1005.8
20260504214103 15 338 11.3 25.7 0.00 0.00 2.06 65 1005.7
20260504214003 15 338 11.3 25.7 0.00 0.00 2.06 65 1005.6
20260504213903 15 335 11.3 25.7 0.00 0.00 2.06 65 1005.8
20260504213803 15 332 9.7 25.7 0.00 0.00 2.06 65 1005.8
20260504213703 15 330 11.3 25.7 0.00 0.00 2.06 65 1005.7
20260504213603 15 327 9.7 25.7 0.00 0.00 2.06 65 1005.5
20260504213516 14 327 9.7 25.7 0.00 0.00 2.06 65 1005.5
20260504213503 14 326 9.7 25.7 0.00 0.00 2.06 65 1005.6
20260504213403 14 324 9.7 25.7 0.00 0.00 2.06 66 1005.7
20260504213203 14 320 9.7 16.1 0.00 0.00 2.06 66 1005.6
20260504213119 14 318 9.7 16.1 0.00 0.00 2.06 66 1005.6
20260504213103 14 318 9.7 16.1 0.00 0.00 2.06 66 1005.5
20260504213003 14 316 9.7 16.1 0.00 0.00 2.06 66 1005.5
20260504212916 13 314 8.0 16.1 0.00 0.00 2.06 67 1005.5
20260504212818 13 313 8.0 16.1 0.00 0.00 2.06 67 1005.7
20260504212503 13 315 8.0 14.5 0.00 0.00 2.06 69 1005.6
20260504212417 12 314 8.0 14.5 0.00 0.00 2.06 69 1005.6
20260504212403 12 313 6.4 14.5 0.00 0.00 2.06 69 1005.5
20260504212304 12 311 6.4 14.5 0.00 0.00 2.06 71 1005.7
20260504212103 12 300 6.4 22.5 0.00 0.00 2.06 71 1005.5
20260504212003 12 300 6.4 24.1 0.00 0.00 2.06 73 1005.5
20260504211903 12 301 6.4 24.1 0.00 0.00 2.06 73 1005.5
20260504211803 12 299 8.0 24.1 0.00 0.00 2.06 73 1005.5
20260504211703 12 297 8.0 24.1 0.00 0.00 2.06 73 1005.5
20260504211603 12 294 8.0 24.1 0.00 0.00 2.06 73 1005.4
20260504211503 12 293 8.0 24.1 0.00 0.00 2.06 73 1005.5
20260504211418 12 294 6.4 24.1 0.00 0.00 2.06 73 1005.5
20260504211403 12 294 6.4 24.1 0.00 0.00 2.06 73 1005.3
20260504211303 11 297 6.4 24.1 0.00 0.00 2.06 74 1005.4
20260504211103 11 309 6.4 24.1 0.00 0.00 2.06 76 1005.0
20260504211003 11 315 4.8 24.1 0.00 0.00 2.06 79 1005.5
20260504210919 11 317 4.8 24.1 0.00 0.00 2.06 81 1005.5
20260504210903 11 320 3.2 24.1 0.00 0.00 2.06 81 1005.4
20260504210803 11 349 3.2 20.9 0.00 0.00 2.06 81 1005.1
20260504210603 11 34 1.6 3.2 0.00 0.00 2.06 80 1005.1
20260504210503 11 45 1.6 3.2 0.00 0.00 2.06 80 1005.3
20260504210417 11 51 1.6 3.2 0.00 0.00 2.06 79 1005.3
20260504210403 11 53 1.6 3.2 0.00 0.00 2.06 79 1005.1
20260504210303 11 62 1.6 3.2 0.00 0.00 2.06 79 1005.0
20260504210004 11 86 1.6 3.2 0.00 0.00 2.06 79 1005.0
20260504205903 11 92 1.6 3.2 0.00 0.00 2.06 79 1005.1
20260504205816 11 95 1.6 3.2 0.00 0.00 2.06 79 1005.1
20260504205803 11 96 1.6 3.2 0.00 0.00 2.06 79 1005.1
20260504205703 11 99 1.6 3.2 0.00 0.00 2.06 78 1005.3
20260504205503 11 102 1.6 3.2 0.00 0.00 2.06 79 1005.0
20260504205418 11 102 1.6 3.2 0.00 0.00 2.06 79 1005.0
20260504205403 11 102 1.6 3.2 0.00 0.00 2.06 79 1005.3
20260504205304 11 101 1.6 3.2 0.00 0.00 2.06 79 1005.3
20260504205103 11 98 1.6 3.2 0.00 0.00 2.06 79 1005.0
20260504205003 11 96 1.6 3.2 0.00 0.00 2.06 78 1005.0
20260504204903 11 92 1.6 3.2 0.00 0.00 2.06 77 1005.3
20260504204803 11 90 1.6 3.2 0.00 0.00 2.06 77 1005.1
20260504204703 11 88 1.6 3.2 0.00 0.00 2.06 77 1005.0
20260504204603 11 86 1.6 3.2 0.00 0.00 2.06 77 1004.9
20260504204503 11 84 1.6 3.2 0.00 0.00 2.06 77 1005.0
20260504204403 11 82 1.6 3.2 0.00 0.00 2.06 77 1005.3
20260504204303 11 78 1.6 3.2 0.00 0.00 2.06 78 1005.1
20260504204203 11 75 1.6 3.2 0.00 0.00 2.06 78 1004.9
20260504204103 11 73 1.6 3.2 0.00 0.00 2.06 77 1005.0
20260504204003 11 71 1.6 3.2 0.00 0.00 2.06 78 1004.9
20260504203903 11 70 1.6 3.2 0.00 0.00 2.06 77 1005.1
20260504203816 11 67 1.6 3.2 0.00 0.00 2.06 77 1005.1
20260504203803 11 66 1.6 3.2 0.00 0.00 2.06 77 1005.1
20260504203703 11 63 1.6 3.2 0.00 0.00 2.06 77 1005.0
20260504203503 11 60 1.6 3.2 0.00 0.00 2.06 77 1005.1
20260504203418 11 61 1.6 3.2 0.00 0.00 2.06 77 1005.1
20260504203403 11 61 1.6 3.2 0.00 0.00 2.06 77 1004.9
20260504203303 11 63 1.6 3.2 0.00 0.00 2.06 76 1005.0
20260504203103 11 69 1.6 3.2 0.00 0.00 2.06 76 1005.1
20260504203003 11 73 1.6 3.2 0.00 0.00 2.06 75 1005.0
20260504202903 11 76 1.6 3.2 0.00 0.00 2.06 74 1005.3
20260504202803 11 82 1.6 3.2 0.00 0.00 2.06 74 1005.1
20260504202703 11 87 1.6 3.2 0.00 0.00 2.06 74 1005.1
20260504202603 11 91 1.6 3.2 0.00 0.00 2.06 74 1005.4
20260504202517 11 94 1.6 3.2 0.00 0.00 2.06 74 1005.4
20260504202503 11 95 1.6 3.2 0.00 0.00 2.06 74 1005.0
20260504202403 12 98 1.6 3.2 0.00 0.00 2.06 74 1004.9
20260504202203 12 104 1.6 3.2 0.00 0.00 2.06 73 1005.3
20260504202103 12 105 1.6 3.2 0.00 0.00 2.06 73 1005.0
20260504202003 12 107 1.6 3.2 0.00 0.00 2.06 73 1005.1
20260504201903 12 108 1.6 3.2 0.00 0.00 2.06 73 1005.1
20260504201803 12 109 1.6 3.2 0.00 0.00 2.06 73 1005.0
20260504201703 12 107 1.6 3.2 0.00 0.00 2.06 73 1005.1
20260504201603 12 105 1.6 3.2 0.00 0.00 2.06 73 1005.0
20260504201503 12 102 1.6 3.2 0.00 0.00 2.06 73 1005.3
20260504201403 12 99 1.6 3.2 0.00 0.00 2.06 73 1005.0
20260504201303 12 94 1.6 3.2 0.00 0.00 2.06 73 1004.8
20260504201203 12 86 1.6 3.2 0.00 0.00 2.06 73 1005.1
20260504201103 12 75 3.2 3.2 0.00 0.00 2.06 73 1005.4
20260504201016 12 67 3.2 3.2 0.00 0.00 2.06 73 1005.4
20260504201003 12 65 3.2 3.2 0.00 0.00 2.06 73 1005.1
20260504200903 12 53 3.2 3.2 0.00 0.00 2.06 73 1005.0
20260504200703 12 31 3.2 3.2 0.00 0.00 2.06 72 1005.1
20260504200603 12 20 3.2 3.2 0.00 0.00 2.06 72 1005.0
20260504200503 12 12 3.2 4.8 0.00 0.00 2.06 72 1005.3
20260504200424 12 6 3.2 4.8 0.00 0.00 2.06 73 1005.3
20260504200403 12 4 3.2 4.8 0.00 0.00 2.06 73 1005.0
20260504200303 12 359 3.2 4.8 0.00 0.00 2.06 73 1005.0
20260504200217 12 358 3.2 4.8 0.00 0.00 2.06 73 1005.0
20260504195903 12 2 3.2 4.8 0.00 0.00 2.06 73 1004.9
20260504195803 12 1 3.2 4.8 0.00 0.00 2.06 73 1004.9
20260504195703 12 356 3.2 4.8 0.00 0.00 2.06 72 1004.9
20260504195603 12 352 3.2 4.8 0.00 0.00 2.06 72 1005.1
20260504195503 12 351 3.2 4.8 0.00 0.00 2.06 72 1005.3
20260504195403 12 351 3.2 4.8 0.00 0.00 2.06 73 1004.9
20260504195304 12 350 3.2 4.8 0.00 0.00 2.06 73 1005.0
20260504195203 12 349 3.2 4.8 0.00 0.00 2.06 73 1004.9
20260504195103 12 348 3.2 4.8 0.00 0.00 2.06 73 1005.0
20260504195003 12 345 3.2 4.8 0.00 0.00 2.06 73 1005.1
20260504194919 12 345 3.2 4.8 0.00 0.00 2.06 74 1005.1
20260504194903 12 345 3.2 4.8 0.00 0.00 2.06 74 1004.9
20260504194803 12 345 3.2 4.8 0.00 0.00 2.06 73 1004.9
20260504194603 12 352 3.2 4.8 0.00 0.00 2.06 74 1005.0
20260504194517 12 353 3.2 4.8 0.00 0.00 2.06 74 1005.0
20260504194503 12 353 3.2 4.8 0.00 0.00 2.06 74 1005.3
20260504194416 12 353 3.2 4.8 0.00 0.00 2.06 73 1005.3
20260504194403 12 353 3.2 4.8 0.00 0.00 2.06 73 1004.9
20260504194103 12 352 3.2 4.8 0.00 0.00 2.06 73 1004.9
20260504194003 12 350 1.6 4.8 0.00 0.00 2.06 73 1005.0
20260504193903 12 353 1.6 4.8 0.00 0.00 2.06 73 1005.0
20260504193803 13 357 1.6 3.2 0.00 0.00 2.06 72 1005.0
20260504193703 13 2 1.6 3.2 0.00 0.00 2.06 72 1005.3
20260504193603 13 7 1.6 3.2 0.00 0.00 2.06 70 1005.3
20260504193503 13 13 1.6 3.2 0.00 0.00 2.06 71 1005.1
20260504193403 13 18 1.6 3.2 0.00 0.00 2.06 70 1005.0
20260504193303 13 22 1.6 3.2 0.00 0.00 2.06 70 1005.1
20260504193203 13 27 1.6 3.2 0.00 0.00 2.06 70 1005.1
20260504193103 13 32 1.6 3.2 0.00 0.00 2.06 69 1005.0
20260504193003 13 40 1.6 3.2 0.00 0.00 2.06 69 1005.3
20260504192903 13 41 1.6 3.2 0.00 0.00 2.06 68 1005.0
20260504192803 13 36 1.6 3.2 0.00 0.00 2.06 70 1005.0
20260504192703 13 33 1.6 3.2 0.00 0.00 2.06 68 1005.0
20260504192619 13 31 1.6 3.2 0.00 0.00 2.06 68 1005.0
20260504192603 13 31 1.6 3.2 0.00 0.00 2.06 68 1005.3
20260504192503 13 26 1.6 3.2 0.00 0.00 2.06 67 1005.1
20260504192304 13 21 1.6 3.2 0.00 0.00 2.06 68 1005.1
20260504192203 13 20 1.6 3.2 0.00 0.00 2.06 68 1005.3
20260504192103 13 20 1.6 3.2 0.00 0.00 2.06 68 1005.3
20260504192018 13 19 1.6 3.2 0.00 0.00 2.06 68 1005.3
20260504192003 13 19 1.6 3.2 0.00 0.00 2.06 68 1005.0
20260504191903 13 19 1.6 3.2 0.00 0.00 2.06 68 1005.0
20260504191820 13 23 3.2 3.2 0.00 0.00 2.06 67 1005.0
20260504191503 13 41 3.2 3.2 0.00 0.00 2.06 67 1005.3
20260504191403 13 47 3.2 3.2 0.00 0.00 2.06 67 1005.0
20260504191303 13 52 3.2 3.2 0.00 0.00 2.06 68 1005.1
20260504191219 13 55 3.2 3.2 0.00 0.00 2.06 68 1005.1
20260504191203 13 57 3.2 3.2 0.00 0.00 2.06 68 1005.1
20260504191103 14 62 3.2 3.2 0.00 0.00 2.06 67 1005.3
20260504190903 14 73 3.2 3.2 0.00 0.00 2.06 65 1005.1
20260504190803 14 76 3.2 3.2 0.00 0.00 2.06 65 1005.3
20260504190703 14 79 3.2 3.2 0.00 0.00 2.06 64 1005.4
20260504190603 14 80 3.2 3.2 0.00 0.00 2.06 64 1005.4
20260504190503 14 82 3.2 3.2 0.00 0.00 2.06 64 1005.1
20260504190403 14 83 3.2 3.2 0.00 0.00 2.06 64 1005.4
20260504190318 14 84 3.2 3.2 0.00 0.00 2.06 63 1005.4
20260504190303 14 84 3.2 3.2 0.00 0.00 2.06 63 1005.3
20260504190203 14 86 3.2 3.2 0.00 0.00 2.06 63 1005.1
20260504190003 14 88 1.6 3.2 0.00 0.00 2.06 63 1005.0
20260504185903 14 88 1.6 3.2 0.00 0.00 2.06 64 1005.0
20260504185803 14 87 1.6 3.2 0.00 0.00 2.06 64 1005.4
20260504185703 14 86 1.6 3.2 0.00 0.00 2.06 64 1005.3
20260504185603 14 81 1.6 3.2 0.00 0.00 2.06 65 1005.1
20260504185503 15 75 1.6 3.2 0.00 0.00 2.06 65 1005.3
20260504185403 15 67 1.6 6.4 0.00 0.00 2.06 65 1005.1
20260504185316 15 46 1.6 6.4 0.00 0.00 2.06 65 1005.1
20260504185304 15 25 1.6 6.4 0.00 0.00 2.06 64 1005.3
20260504185203 15 333 1.6 8.0 0.00 0.00 2.06 64 1005.5
20260504185003 15 303 3.2 8.0 0.00 0.00 2.06 66 1005.5
20260504184903 15 300 3.2 8.0 0.00 0.00 2.06 64 1005.3
20260504184803 15 299 3.2 8.0 0.00 0.00 2.06 65 1005.4
20260504184703 15 298 3.2 8.0 0.00 0.00 2.06 64 1005.3
20260504184603 15 297 3.2 8.0 0.00 0.00 2.06 64 1005.1
20260504184503 15 295 3.2 8.0 0.00 0.00 2.06 64 1005.5
20260504184403 15 300 3.2 8.0 0.00 0.00 2.06 70 1005.3
20260504184303 15 305 3.2 8.0 0.00 0.00 2.06 70 1005.3
20260504184203 15 312 3.2 8.0 0.00 0.00 2.06 70 1005.4
20260504184103 15 327 3.2 8.0 0.00 0.00 2.06 70 1005.5
20260504184003 15 3 1.6 8.0 0.00 0.00 2.06 70 1005.5
20260504183903 15 45 1.6 4.8 0.00 0.00 2.06 65 1005.3
20260504183803 15 62 1.6 3.2 0.00 0.00 2.06 61 1005.4
20260504183703 15 73 1.6 3.2 0.00 0.00 2.06 61 1005.1
20260504183603 15 78 1.6 3.2 0.00 0.00 2.06 61 1005.4
20260504183503 15 80 1.6 3.2 0.00 0.00 2.06 60 1005.3
20260504183403 15 82 1.6 3.2 0.00 0.00 2.06 59 1005.1
20260504183303 15 82 1.6 3.2 0.00 0.00 2.06 59 1005.0
20260504183203 16 79 1.6 3.2 0.00 0.00 2.06 59 1005.1
20260504183103 16 74 1.6 3.2 0.00 0.00 2.06 58 1005.0
20260504183016 16 69 1.6 3.2 0.00 0.00 2.06 58 1005.0
20260504183003 16 68 1.6 3.2 0.00 0.00 2.06 58 1005.4
20260504182919 16 64 1.6 3.2 0.00 0.00 2.06 58 1005.4
20260504182903 16 63 1.6 3.2 0.00 0.00 2.06 58 1005.1
20260504182603 16 55 1.6 3.2 0.00 0.00 2.06 58 1005.1
20260504182517 16 54 1.6 3.2 0.00 0.00 2.06 58 1005.1
20260504182503 16 54 1.6 3.2 0.00 0.00 2.06 58 1005.4
20260504182403 16 54 1.6 3.2 0.00 0.00 2.06 58 1005.3
20260504182203 16 51 1.6 3.2 0.00 0.00 2.06 58 1005.3
20260504182103 16 52 1.6 3.2 0.00 0.00 2.06 58 1005.4
20260504182003 16 50 1.6 3.2 0.00 0.00 2.06 58 1005.3
20260504181903 16 50 0.0 3.2 0.00 0.00 2.06 57 1005.4
20260504181803 16 51 0.0 3.2 0.00 0.00 2.06 57 1005.3
20260504181703 16 55 0.0 1.6 0.00 0.00 2.06 57 1005.4
20260504181603 16 72 0.0 1.6 0.00 0.00 2.06 57 1005.3
20260504181519 17 92 0.0 1.6 0.00 0.00 2.06 57 1005.3
20260504181503 17 95 0.0 1.6 0.00 0.00 2.06 57 1005.4
20260504181403 17 99 0.0 1.6 0.00 0.00 2.06 56 1005.4
20260504181103 17 99 0.0 1.6 0.00 0.00 2.06 55 1005.3
20260504181003 17 99 0.0 1.6 0.00 0.00 2.06 55 1005.4
20260504180918 17 99 0.0 1.6 0.00 0.00 2.06 55 1005.4
20260504180903 17 100 0.0 1.6 0.00 0.00 2.06 55 1005.5
20260504180803 17 101 0.0 1.6 0.00 0.00 2.06 53 1005.3
20260504180618 17 106 0.0 1.6 0.00 0.00 2.06 53 1005.3
20260504180603 17 107 0.0 1.6 0.00 0.00 2.06 54 1005.1
20260504180503 17 114 0.0 3.2 0.00 0.00 2.06 53 1005.1
20260504180303 17 118 0.0 3.2 0.00 0.00 2.06 53 1005.1
20260504180203 18 119 0.0 3.2 0.00 0.00 2.06 53 1005.3
20260504180119 18 119 0.0 3.2 0.00 0.00 2.06 53 1005.3
20260504180103 18 120 0.0 3.2 0.00 0.00 2.06 53 1005.4
20260504180003 18 121 0.0 3.2 0.00 0.00 2.06 53 1005.5
20260504175803 18 125 0.0 3.2 0.00 0.00 2.06 52 1005.4
20260504175703 18 127 0.0 3.2 0.00 0.00 2.06 51 1005.1
20260504175616 18 129 0.0 3.2 0.00 0.00 2.06 49 1005.1
20260504175603 18 130 0.0 3.2 0.00 0.00 2.06 49 1005.5
20260504175503 18 131 0.0 3.2 0.00 0.00 2.06 48 1005.1
20260504175304 19 136 0.0 3.2 0.00 0.00 2.06 47 1005.4
20260504175203 19 139 1.6 3.2 0.00 0.00 2.06 47 1005.3
20260504175103 19 141 1.6 3.2 0.00 0.00 2.06 46 1005.4
20260504175020 19 145 1.6 3.2 0.00 0.00 2.06 46 1005.4
20260504175003 19 145 1.6 3.2 0.00 0.00 2.06 46 1005.1
20260504174903 20 146 1.6 3.2 0.00 0.00 2.06 46 1005.1
20260504174703 20 157 1.6 3.2 0.00 0.00 2.06 45 1005.3
20260504174603 20 164 1.6 4.8 0.00 0.00 2.06 45 1005.4
20260504174503 20 171 1.6 4.8 0.00 0.00 2.06 44 1005.3
20260504174403 20 177 1.6 4.8 0.00 0.00 2.06 44 1005.5
20260504174303 20 186 1.6 4.8 0.00 0.00 2.06 43 1005.3
20260504174216 20 190 1.6 4.8 0.00 0.00 2.06 44 1005.3
20260504174203 20 191 1.6 4.8 0.00 0.00 2.06 44 1005.4
20260504174103 20 198 1.6 4.8 0.00 0.00 2.06 44 1005.4
20260504173903 21 207 1.6 4.8 0.00 0.00 2.06 42 1005.4
20260504173803 21 209 3.2 4.8 0.00 0.00 2.06 42 1005.5
20260504173703 21 210 3.2 4.8 0.00 0.00 2.06 42 1005.5
20260504173603 21 211 3.2 4.8 0.00 0.00 2.06 42 1005.5
20260504173403 21 204 3.2 4.8 0.00 0.00 2.06 40 1005.5
20260504173316 21 200 3.2 4.8 0.00 0.00 2.06 40 1005.5
20260504173303 21 200 3.2 6.4 0.00 0.00 2.06 41 1005.5
20260504173003 22 196 3.2 6.4 0.00 0.00 2.06 40 1005.5
20260504172903 22 196 3.2 6.4 0.00 0.00 2.06 40 1005.6
20260504172803 22 197 3.2 6.4 0.00 0.00 2.06 39 1005.6
20260504172703 22 198 3.2 6.4 0.00 0.00 2.06 39 1005.6
20260504172603 22 199 3.2 6.4 0.00 0.00 2.06 39 1005.5
20260504172503 22 207 3.2 12.9 0.00 0.00 2.06 38 1005.5
20260504172403 22 207 3.2 12.9 0.00 0.00 2.06 39 1005.6
20260504172318 22 210 3.2 12.9 0.00 0.00 2.06 38 1005.6
20260504172304 22 210 4.8 12.9 0.00 0.00 2.06 38 1005.5
20260504172203 22 207 4.8 12.9 0.00 0.00 2.06 38 1005.5
20260504172003 22 208 4.8 12.9 0.00 0.00 2.06 37 1005.5
20260504171903 22 206 4.8 12.9 0.00 0.00 2.06 38 1005.4
20260504171803 23 205 4.8 12.9 0.00 0.00 2.06 37 1005.6
20260504171703 23 206 4.8 12.9 0.00 0.00 2.06 37 1005.5
20260504171603 23 206 4.8 12.9 0.00 0.00 2.06 37 1005.5
20260504171503 23 205 4.8 12.9 0.00 0.00 2.06 35 1005.5
20260504171403 23 206 6.4 12.9 0.00 0.00 2.06 38 1005.5
20260504171304 23 203 4.8 12.9 0.00 0.00 2.06 36 1005.4
20260504171203 23 208 4.8 12.9 0.00 0.00 2.06 37 1005.5
20260504171103 23 210 4.8 12.9 0.00 0.00 2.06 37 1005.5
20260504171003 23 207 4.8 12.9 0.00 0.00 2.06 35 1005.5
20260504170903 23 207 4.8 12.9 0.00 0.00 2.06 35 1005.5
20260504170803 23 209 4.8 12.9 0.00 0.00 2.06 35 1005.5
20260504170703 23 210 4.8 12.9 0.00 0.00 2.06 35 1005.3
20260504170603 23 208 6.4 12.9 0.00 0.00 2.06 33 1005.5
20260504170503 23 205 4.8 12.9 0.00 0.00 2.06 32 1005.4
20260504170403 23 205 6.4 12.9 0.00 0.00 2.06 32 1005.3
20260504170303 23 207 4.8 12.9 0.00 0.00 2.06 32 1005.5
20260504170203 23 205 6.4 12.9 0.00 0.00 2.06 32 1005.5
20260504160403 25 194 8.0 20.9 0.00 0.00 2.06 30 1005.5
20260504160303 25 193 8.0 20.9 0.00 0.00 2.06 30 1005.5
20260504160203 25 193 8.0 20.9 0.00 0.00 2.06 30 1005.5
20260504160103 25 200 9.7 20.9 0.00 0.00 2.06 32 1005.6
20260504150903 25 174 11.3 24.1 0.00 0.00 2.06 30 1005.7